Location: Antioch Baptist Church
(32.6696°N, 85.7327°W)
Time: 00:02:08
(UTC+00:00)

Daily predictions for brighter satellites

Satellite Brightness Start Highest point End
(mag) Time Altitude Azimuth Time Altitude Azimuth Time Altitude Azimuth
Cosmos 2360 Rocket 4.2 01:12:27 10° SW 01:17:33 34° WNW 01:22:42 10° N
Cosmos 1703 3.5 01:15:29 10° SSE 01:19:13 48° E 01:22:58 10° NNE
Cosmos 2237 Rocket 3.3 01:15:56 10° SSE 01:20:17 23° E 01:24:40 10° NE
Delta 2 Rocket 3.4 01:18:53 10° W 01:22:43 54° SSW 01:26:09 10° SE
USA 234 4.2 01:17:08 10° SSE 01:23:19 44° SW 01:29:32 10° NW
Cosmos 2322 4.4 01:17:52 10° SSW 01:23:31 62° WNW 01:29:11 10° NNE
Cosmos 1844 4.0 01:18:39 10° N 01:24:14 53° ENE 01:29:44 10° SE
NOSS 3-3 (A) 4.5 01:19:15 10° SW 01:24:51 63° WNW 01:31:03 10° NNE
NOSS 3-3 (C) 4.4 01:19:20 10° SW 01:24:56 64° WNW 01:31:09 10° NNE
Gbstr 26 Del rocket 3.0 01:21:47 10° SSW 01:25:42 43° SE 01:29:16 10° ENE
COSMOS 2428 2.7 01:23:19 10° SSW 01:28:57 84° ESE 01:34:39 10° NNE
ATLAS CENTAUR R/B 2.4 01:26:10 10° N 01:29:13 25° NE 01:32:12 10° ESE
Cosmos 1953 Rocket 4.2 01:25:39 10° SSE 01:29:34 35° E 01:33:30 10° NNE
Cosmos 1328 3.8 01:26:29 10° S 01:30:22 60° E 01:34:17 10° NNE
Cosmos 1709 Rocket 4.3 01:26:52 10° SSE 01:32:52 49° E 01:38:56 10° NNE
ATLAS CENTAUR R/B 3.6 01:30:55 10° W 01:33:02 20° SW 01:36:29 10° S
Resurs 01 Rocket 3.1 01:31:18 10° ESE 01:34:35 21° ENE 01:37:52 10° NNE
Nadezhda 1 Rocket 4.0 01:31:42 10° N 01:38:05 74° E 01:44:22 10° SSE
Cosmos 1825 Rocket 3.5 01:35:15 10° S 01:39:41 79° E 01:44:09 10° N
SJ-6B 2.8 01:36:42 10° SSE 01:40:42 84° ENE 01:44:48 10° N
Hubble Space Telescope 1.1 01:40:59 10° WSW 01:44:56 47° S 01:48:07 15° ESE
H-2A R/B 3.3 01:39:53 10° S 01:45:03 44° W 01:50:14 10° NNW
Milstar 3 4.3 01:36:31 10° W 01:46:00 67° S 02:03:26 13° ESE
Cosmos 1844 Rocket 2.8 01:41:32 10° NNW 01:47:06 76° WSW 01:52:39 10° SSE
BREEZE-M DEB (TANK) 3.9 01:34:44 10° SW 01:47:09 80° NW 01:50:22 10° NE
IUS-9 SRM-1 3.4 01:45:39 10° WSW 01:47:36 14° SSW 01:48:45 11° S
GPS 2-04 Rocket1 4.3 01:45:59 10° S 01:47:11 13° SSE 01:47:11 13° SSE
Resurs 1-3 4.0 01:45:15 12° SSE 01:49:07 47° ENE 01:53:19 10° N
SEDSat Delta rocket 3.8 01:44:27 10° SW 01:49:30 48° SSE 01:55:17 10° E
Cosmos-2242 3.1 01:48:05 10° N 01:52:26 61° E 01:56:25 12° SSE
Cosmos 2333 Rocket 3.4 01:47:56 10° SW 01:53:23 47° WNW 01:58:54 10° N
USA 186 3.5 01:51:59 10° SSW 01:54:54 30° W 01:57:42 10° NW
Cosmos 1538 Rocket 4.4 01:50:17 10° SSW 01:55:36 68° WNW 02:00:55 10° N
SPOT 3 Rocket 3.7 01:51:51 12° SSE 01:56:39 62° ENE 02:01:49 10° N
NOSS 0 Rocket 3.9 01:50:40 10° SSW 01:56:45 72° ESE 02:02:54 10° NNE
OAO 2 Rocket 3.4 01:52:16 10° WNW 01:57:30 77° SSW 02:01:23 19° ESE
Cosmos 1455 3.0 01:55:11 10° NNW 01:58:57 52° W 02:02:42 10° S
Cosmos 2084 3.5 01:59:18 10° NNW 02:03:44 70° ENE 02:06:28 22° SE
Cosmos 2278 Rocket 3.4 01:59:21 10° N 02:04:07 27° ENE 02:07:03 18° ESE
SL-16 R/B 3.4 02:09:57 21° ESE 02:10:48 21° E 02:14:58 10° NE
Alouette 2 Rocket 4.5 02:09:20 10° N 02:14:22 85° E 02:22:01 11° S
Spot 2 Rocket 4.4 02:19:25 25° ESE 02:21:24 33° ENE 02:25:56 10° N
Meteor 1-27 4.4 02:17:17 10° N 02:22:59 56° E 02:26:09 26° SSE
Cosmos 2112 Rocket 4.1 02:19:12 12° S 02:23:59 56° ESE 02:29:13 10° NNE
BREEZE M DEB (TANK) 3.3 02:27:24 10° SW 02:30:44 77° NW 02:41:51 10° NE
BREEZE M DEB (TANK) 4.4 02:31:55 10° N 02:32:38 11° NNE 02:32:49 11° NNE
Cosmos 2058 3.5 02:33:45 36° E 02:33:48 36° E 02:37:35 10° NNE
BREEZE-M R/B 4.4 02:24:35 10° NW 02:36:12 74° NE 02:39:02 32° ESE
Cosmos 2074 Rocket 4.0 02:34:54 24° SSE 02:38:43 64° E 02:44:50 10° NNE
Cosmos 1315 Rocket 2.8 02:36:46 10° N 02:40:54 89° WNW 02:42:07 45° S
Cosmos 2154 Rocket 4.5 02:40:49 33° ESE 02:42:29 39° E 02:48:11 10° NNE
Cosmos 44 3.5 02:44:11 10° SW 02:48:24 58° WNW 02:52:42 10° NNE
Cosmos 1680 Rocket 3.8 02:44:22 10° SSW 02:49:38 68° WNW 02:54:57 10° N
ISS -3.3 02:46:34 10° SW 02:49:52 60° NW 02:53:12 10° NE
Cosmos 1892 2.6 02:56:31 72° NE 02:56:31 72° NE 03:00:04 10° N
Atlas Centaur 2 3.6 02:53:09 10° WSW 02:56:41 19° SSW 02:56:41 19° SSW
Geosat 3.9 02:55:58 51° SE 02:57:14 78° ENE 03:02:16 10° NNW
Cosmos 2181 Rocket 4.2 02:52:10 10° NNW 02:58:21 66° W 03:01:54 26° SSW
Cosmos 2327 Rocket 4.4 02:57:32 42° SSE 02:59:30 63° E 03:05:31 10° NNE
Cosmos 2237 Rocket 3.6 02:58:45 10° SW 03:04:01 39° WNW 03:09:19 10° N
Meteor 2-17 Rocket 4.3 03:02:52 34° S 03:05:43 90° WNW 03:11:47 10° N
Gblst 52 Del rocket 4.3 03:01:52 10° NW 03:07:38 80° SW 03:09:13 52° SSE
ATLAS CENTAUR R/B 3.3 03:05:32 10° WNW 03:07:51 16° WSW 03:08:23 16° WSW
Landsat 7 3.8 03:07:35 62° S 03:08:22 82° WSW 03:13:09 10° NNW
Resurs 01 Rocket 3.3 03:08:51 19° SW 03:10:52 27° W 03:14:36 10° NW
NOSS 3-4 (A) 4.0 03:06:19 10° NNW 03:13:33 68° ENE 03:16:05 45° SE
NOSS 3-4 (C) 4.0 03:06:26 10° NNW 03:13:40 67° ENE 03:16:12 45° ESE
OAO 3 Copernicus 4.4 03:11:13 10° WNW 03:16:17 71° N 03:17:09 58° ENE
ERS-1 Rocket 3.0 03:16:29 62° E 03:16:40 63° ENE 03:21:39 10° N
Cosmos 1943 Rocket 4.2 03:14:45 10° NNE 03:17:36 14° NE 03:18:23 14° ENE
Cosmos 1610 Rocket 4.4 03:20:18 46° S 03:22:22 87° W 03:28:47 10° N
Cosmos 1842 Rocket 4.3 03:19:46 10° NNW 03:23:53 44° W 03:24:16 43° WSW
Cosmos 1825 3.8 03:26:00 27° NNE 03:26:00 27° NNE 03:27:53 10° NNE
Cosmos 2344 4.0 03:17:58 10° SW 03:25:34 59° WNW 03:33:06 10° NNE
Hubble Space Telescope 2.9 03:22:07 10° WSW 03:23:26 18° WSW 03:23:26 18° WSW
SPOT 1/Viking Rocket 3.6 03:26:27 61° SW 03:27:05 67° WSW 03:32:14 10° NNW
Mugunghwa Rocket 4.3 03:22:51 10° WSW 03:28:22 48° SSW 03:28:22 48° SSW
Cosmos 1408 4.1 03:30:37 33° NNW 03:30:37 33° NNW 03:32:47 10° N
COSMOS 2455 4.3 03:27:45 10° N 03:32:29 23° NE 03:33:19 23° ENE
Cosmos 1624 Rocket 4.1 03:28:44 10° N 03:33:35 64° NE 03:33:35 64° NE
BREEZE-M DEB (TANK) 3.9 03:30:44 10° NW 03:34:51 27° NNE 03:34:51 27° NNE
Cosmos 2221 3.6 03:31:27 10° NNW 03:35:29 39° W 03:35:30 39° W
SEDSat Delta rocket 3.6 03:30:03 10° W 03:35:48 79° S 03:35:53 79° SSE
CARTOSAT-1 4.1 03:38:11 56° NW 03:38:11 56° NW 03:41:42 10° NNW
ATLAS 2AS CENTAUR R/B 2.5 03:33:31 10° NNW 03:40:53 87° WSW 03:41:54 68° SSE
SPOT 5 3.0 03:41:54 71° NNW 03:41:54 71° NNW 03:46:07 10° NNW
Cosmos 2151 4.1 03:43:44 40° N 03:43:44 40° N 03:46:30 10° N
USA 215 3.1 03:37:46 10° NE 03:44:19 81° SE 03:46:25 47° SSW
Cosmos 2278 Rocket 3.3 03:43:07 10° NW 03:48:09 34° WSW 03:48:54 32° WSW
SL-16 R/B 3.3 03:51:42 25° WSW 03:54:32 41° WNW 03:59:54 10° N
Terra 2.4 03:56:54 55° NNW 03:56:54 55° NNW 04:00:37 10° NNW
Cosmos 2297 3.9 03:54:07 10° NNW 03:59:13 66° NNE 03:59:13 66° NNE
Cosmos 2366 rocket 4.3 04:03:46 54° ENE 04:03:46 54° ENE 04:09:09 10° NNE
Cosmos 2218 Rocket 4.2 04:09:50 63° NE 04:09:50 63° NE 04:15:19 10° NNE
Cosmos 1603 4.4 04:32:09 49° NNE 04:32:09 49° NNE 04:36:14 10° NNE
SL-8 Rocket 4.3 04:32:32 59° WNW 04:32:32 59° WNW 04:38:12 10° N
Cosmos 2369 Rocket 3.3 04:29:05 10° N 04:33:06 37° NNE 04:33:06 37° NNE
Lacrosse 5 rocket 4.1 04:37:17 10° NNW 04:38:15 16° N 04:38:15 16° N
Cosmos 1943 Rocket 3.3 04:56:15 10° NNW 04:59:53 41° NW 04:59:53 41° NW
Cosmos 1727 Rocket 4.5 04:57:10 10° N 05:02:04 57° N 05:02:04 57° N
Lacrosse 5 4.0 05:08:05 21° NNE 05:08:05 21° NNE 05:09:46 10° NE
COSMOS 2455 4.1 05:12:50 10° NW 05:16:26 34° WNW 05:16:26 34° WNW
CZ-4C R/B 3.1 05:35:14 10° NNW 05:42:00 70° NW 05:42:00 70° NW
USA 267 3.8 05:54:08 51° NE 05:54:29 51° NE 06:00:46 10° NNW
Resurs 1-4 Rocket 3.8 06:32:32 10° NE 06:35:35 26° ENE 06:35:35 26° ENE
Lacrosse 5 4.4 06:47:14 12° NW 06:48:23 13° NNW 06:50:48 10° N
Cosmos 2173 Rocket 4.3 06:56:53 66° NNE 06:56:53 66° NNE 07:02:18 10° N
Cosmos 2016 Rocket 4.3 07:07:36 60° ENE 07:07:36 60° ENE 07:13:08 10° NNE
SL-16 R/B 2.9 07:12:18 55° E 07:12:48 56° ENE 07:18:53 10° N
Meteor 2-4 Rocket 4.4 07:08:55 10° N 07:14:38 49° E 07:14:40 49° E
Cosmos 1697 Rocket 4.4 07:19:01 10° N 07:23:46 27° ENE 07:27:06 16° ESE
SeaSat 1 3.2 07:20:29 10° NNE 07:24:07 50° NNE 07:24:07 50° NNE
Cosmos 2082 Rocket 2.7 07:28:05 53° E 07:28:05 53° E 07:33:06 10° NNE
CZ-4B R/B 4.2 07:25:05 10° NNE 07:28:58 48° NE 07:28:58 48° NE
Cosmos 1833 Rocket 3.0 07:31:40 63° N 07:31:40 63° N 07:36:26 10° NNE
Cosmos 1140 Rocket 4.2 07:32:14 49° NNW 07:32:14 49° NNW 07:36:12 10° N
IRS-1D 4.3 07:26:53 10° NNE 07:30:55 43° ENE 07:30:55 43° ENE
Aureole 1 Rocket 4.2 07:33:50 46° N 07:33:50 46° N 07:37:43 10° NNE
Cosmos 407 Rocket 4.5 07:36:02 39° NW 07:36:02 39° NW 07:40:03 10° N
CZ-2D R/B 2.5 07:29:57 10° N 07:34:24 58° NNW 07:34:24 58° NNW
COSMOS 2406 4.0 07:37:53 42° NW 07:37:53 42° NW 07:42:47 10° N
Cosmos 1656 3.7 07:37:01 10° NNW 07:41:58 71° NNE 07:41:58 71° NNE
CBERS-1 4.3 07:39:27 10° NNE 07:44:09 62° ENE 07:44:09 62° ENE
Cosmos 2233 Rocket 3.9 07:53:28 69° SSE 07:54:12 80° E 08:00:26 10° N
Cosmos 2346 Rocket 4.3 07:49:42 10° N 07:55:50 74° W 07:55:55 74° WSW
Cosmos 1733 Rocket 3.7 07:57:57 51° NNE 07:57:57 51° NNE 08:01:15 10° N
Cosmos 676 Rocket 4.3 07:57:50 56° NW 07:57:50 56° NW 08:02:31 10° N
ARIANE 5 R/B 3.3 07:58:42 10° NNE 08:03:33 42° E 08:04:30 39° SE
Cosmos 1741 Rocket 4.4 08:05:24 50° SE 08:05:56 52° ESE 08:11:00 10° NNE
IRS-1C 4.2 08:02:02 10° NNE 08:07:20 66° ESE 08:08:02 60° SE
Meteor 1-13 Rocket 4.1 08:01:59 10° N 08:07:41 89° W 08:08:17 73° S
ADEOS II 1.9 08:06:48 10° N 08:12:04 81° WNW 08:12:21 77° WSW
ATLAS 2A CENTAUR R/B 3.7 08:15:30 37° SSE 08:15:30 37° SSE 08:18:35 10° ESE
Resurs 1-4 Rocket 3.4 08:12:34 10° NNW 08:16:39 25° WNW 08:16:39 25° WNW
Centaur AC-72 4.1 08:18:11 26° SSE 08:18:11 26° SSE 08:22:08 10° ESE
USA 238 DEB 4.1 08:20:44 35° SSE 08:23:05 50° ESE 08:29:35 10° NE
USA 238 4.2 08:20:49 35° SSE 08:23:11 50° ESE 08:29:39 10° NE
Cosmos 1536 4.1 08:25:47 31° NW 08:25:47 31° NW 08:28:25 10° N
CENTAUR R/B 3.8 08:29:59 19° SSE 08:32:49 28° ESE 08:38:01 10° NE
ATLAS 5 CENTAUR R/B 3.8 08:27:12 10° NNW 08:32:50 40° NE 08:39:09 10° ESE
Cosmos 1975 4.2 08:33:09 27° SE 08:34:30 34° E 08:38:07 10° NNE
H-2A R/B 4.3 08:31:14 10° ESE 08:34:45 24° ENE 08:38:12 10° NNE
SL-27 R/B 3.7 08:35:04 33° ESE 08:35:21 34° ESE 08:38:33 10° NE
Cosmos 2369 3.6 08:34:04 10° NNW 08:39:46 68° WSW 08:42:08 35° S
Cosmos 1980 Rocket 2.5 08:34:14 10° NNW 08:39:55 67° ENE 08:45:31 10° SSE
CZ-2C R/B 3.9 08:38:31 10° NNE 08:42:20 40° E 08:43:53 28° SSE
Tsikada Rocket 4.5 08:37:05 10° NNW 08:43:02 41° W 08:44:16 38° WSW
Cosmos 921 Rocket 2.9 08:39:32 10° NNW 08:43:52 65° WSW 08:44:02 64° WSW
IDEFIX/ARIANE 42P 2.7 08:42:02 10° NNE 08:47:12 69° E 08:49:47 30° S
ERS-2 4.2 08:46:07 10° SE 08:49:13 27° ENE 08:52:20 10° NNE
Meteor 1-28 Rocket 3.0 08:51:07 58° S 08:51:48 89° WSW 08:55:31 10° NNW
Cosmos 1867 3.6 08:50:00 37° S 08:52:11 73° ESE 08:57:37 10° NNE
Cosmos 1378 Rocket 3.4 08:50:37 10° N 08:55:01 74° W 08:56:31 40° S
SL-16 R/B 4.0 08:57:23 18° W 08:57:23 18° W 09:00:48 10° NW
ERBS 2.1 08:59:02 70° SSE 08:59:15 74° SE 09:02:32 10° NE
Cosmos 2278 3.6 08:54:24 10° NNW 09:00:06 69° WSW 09:05:44 10° S
Cosmos 1464 Rocket 4.0 08:58:17 26° SSW 09:02:09 78° W 09:08:33 10° N
CZ-2C R/B 4.2 08:58:33 10° NE 09:02:26 26° E 09:06:15 10° SSE
SL-16 R/B 4.3 08:57:46 10° N 09:02:35 28° ENE 09:07:23 10° ESE
MSX 4.1 08:57:32 10° NNE 09:03:14 67° ESE 09:07:44 17° S
Okean 2 4.0 09:02:28 10° N 09:06:28 54° E 09:10:27 10° SSE
SL-19 R/B 3.7 09:04:26 10° NNE 09:07:30 85° WNW 09:08:16 50° SSW
Cosmos 1697 Rocket 3.3 09:02:43 10° NW 09:07:39 32° WSW 09:08:43 30° SW
Cosmos 1271 Rocket 3.1 09:07:06 10° N 09:10:48 59° E 09:14:28 10° SSE
ATLAS 2A CENTAUR R/B 2.8 09:11:05 15° SSE 09:11:07 15° SSE 09:13:17 10° ESE
Cosmos 1263 4.3 09:08:36 10° NNW 09:11:35 56° W 09:12:02 50° SW
Cosmos 2082 Rocket 3.9 09:09:56 15° W 09:11:56 18° WNW 09:15:42 10° NNW
Cosmos 2034 Rocket 3.9 09:08:08 16° S 09:13:07 89° E 09:19:18 10° N
CZ-2D R/B 4.0 09:10:12 10° N 09:14:17 43° WNW 09:15:42 32° WSW
Cosmos 1763 Rocket 3.5 09:09:00 10° NNW 09:14:18 88° WSW 09:19:36 10° SSE
Cosmos 1544 3.4 09:17:21 37° WSW 09:18:06 43° W 09:21:33 10° N
ATLAS 3B R/B 4.2 09:16:01 10° SSE 09:21:33 28° ESE 09:27:03 10° NE
ISS -0.8 09:19:37 10° NNW 09:22:09 20° NE 09:24:41 10° E
NOSS 3-2 (C) 3.2 09:18:37 23° SSW 09:22:13 86° ESE 09:28:20 10° NNE
Cosmos 1743 4.2 09:22:56 19° W 09:23:09 20° WNW 09:25:59 10° NNW
Cosmos 1782 Rocket 3.8 09:21:46 26° SSW 09:24:01 52° W 09:28:20 10° N
ATLAS 2A CENTAUR R/B 3.5 09:15:18 10° W 09:25:56 45° SSW 09:29:11 10° ESE
Cosmos 468 Rocket 4.1 09:20:46 10° NNW 09:25:57 56° WSW 09:31:07 10° S
Cosmos 1570 Rocket 4.3 09:24:02 10° NNW 09:29:18 69° ENE 09:34:34 10° SSE
NOSS 3-2 (A) 3.9 09:31:00 20° WSW 09:34:34 44° NW 09:40:26 10° NNE
Landsat 5 3.2 09:31:53 10° S 09:35:49 72° WSW 09:39:40 10° NNW
COSMOS 2441 4.4 09:32:10 10° N 09:36:54 63° WNW 09:40:56 14° SSW
COSMOS 2487 3.8 09:36:15 10° S 09:39:25 36° ESE 09:42:36 10° NE
Cosmos 968 Rocket 4.4 09:34:33 10° S 09:39:27 47° ESE 09:44:21 10° NNE
Meteor 2-9 Rocket 4.4 09:36:47 16° SSW 09:40:47 48° W 09:45:57 10° N
Cosmos 540 Rocket 3.6 09:36:08 10° NNW 09:41:17 79° ENE 09:46:26 10° SSE
Cosmos 1242 Rocket 3.8 09:38:53 10° NW 09:41:32 20° W 09:42:13 19° WSW
Cosmos 841 Rocket 3.5 09:36:58 10° NNW 09:42:10 86° ENE 09:47:21 10° SSE
ARIANE 5 R/B 4.1 09:38:49 10° NNW 09:42:17 19° WNW 09:44:50 13° WSW
Cosmos 2322 Rocket 3.2 09:38:16 10° N 09:43:47 51° ENE 09:49:18 10° SE
Meteor 1-12 Rocket 4.4 09:40:34 10° S 09:46:14 82° E 09:52:01 10° N
Sich 1 Rocket 4.0 09:45:04 14° SSW 09:48:47 45° W 09:53:06 10° N
Cosmos 1818 3.6 09:48:07 10° NW 09:53:29 61° WSW 09:58:48 10° SSE
CZ-4B R/B 2.3 09:53:42 10° SSE 09:57:05 55° ENE 10:00:30 10° N
deb Chang Zheng 4 3.6 09:55:41 10° N 09:59:55 66° WNW 10:04:10 10° SSW
Cosmos 1833 4.2 09:55:09 10° SSW 10:00:46 90° WNW 10:06:26 10° NNE
Cosmos 1092 Rocket 4.1 09:56:47 10° N 10:03:09 87° W 10:09:25 10° S
Cosmos 1484 Rocket 4.0 10:01:58 10° NNE 10:05:37 42° E 10:09:12 10° S
Okean 1 Rocket 4.3 10:01:44 10° SSE 10:05:53 44° E 10:10:03 10° NNE
H-2A R/B 3.2 10:07:01 10° SSW 10:10:34 24° W 10:14:05 10° NW
Cosmos 1975 Rocket 4.0 10:07:47 10° NNW 10:11:37 29° W 10:15:27 10° SSW
Cosmos 2360 Rocket 3.4 10:10:18 10° N 10:15:48 49° ENE 10:21:16 10° SE
Cosmos 1486 Rocket 4.2 10:10:40 10° SSW 10:15:52 58° WNW 10:21:04 10° N
ATLAS 5 CENTAUR R/B 3.2 10:11:56 10° NW 10:17:31 34° WSW 10:23:38 10° S
CZ-3B R/B 3.0 10:15:53 10° WSW 10:24:39 39° S 10:27:55 10° ESE
